{"data":{"norad_id":56891,"epoch":"2026-09-20T14:37:41.190528Z","epoch_age_seconds":108067,"freshness":"FRESH","line1":"1 56891U 23083R   26263.60950452  .00020617  00000+0  75907-3 0  9991","line2":"2 56891  43.0023  64.1485 0000635 298.1621  61.9166 15.27474122181446","mean_motion":15.27474122,"eccentricity":6.35e-5,"inclination_deg":43.0023,"raan_deg":64.1485,"arg_perigee_deg":298.1621,"mean_anomaly_deg":61.9166,"bstar":0.00075907,"rev_number":18144,"period_min":94.273282883152,"perigee_km":482.93044572386,"apogee_km":483.80185662406,"semimajor_km":6861.503151174,"source":"CELESTRAK","updated_at":"2026-09-21T09:00:33.522401Z"}}